Regional Weather Roundup
Issued by NWS

Home | Current Version | Previous Version | Text Only | Print | Product List | Glossary On
Versions: 1 2 3 4 5 6 7 8 9 10 11 12 13 14 15 16 17 18 19 20 21 22 23 24 25 26 27 28 29 30 31 32 33 34 35 36 37 38 39 40 41 42 43 44 45 46 47 48 49 50
010
ASUS44 KFWD 150001
RWRTX
NORTH TEXAS HOURLY WEATHER ROUNDUP
NATIONAL WEATHER SERVICE FORT WORTH TX
600 PM CST SUN FEB 14 2016

NOTE: "FAIR" INDICATES FEW OR NO CLOUDS BELOW 12,000 FEET WITH NO
SIGNIFICANT WEATHER AND/OR OBSTRUCTIONS TO VISIBILITY.

TXZ118-119-150100-
DALLAS/FORT WORTH METROPLEX

CITY           SKY/WX    TMP DP  RH WIND       PRES   REMARKS
DFW AIRPORT    CLOUDY    65  53  65 E3        29.82S
6HR MIN TEMP:  63; 6HR MAX TEMP:  67;

DALLAS LOVE    CLOUDY    66  54  65 S5        29.83S
6HR MIN TEMP:  64; 6HR MAX TEMP:  67;

FTW MEACHAM    CLOUDY    67  52  58 E6        29.82S
6HR MIN TEMP:  65; 6HR MAX TEMP:  69;

DAL-EXECUTIVE  CLOUDY    66  54  65 S6        29.82F
6HR MIN TEMP:  64; 6HR MAX TEMP:  67;

FTW-ALLIANCE   MOCLDY    64  52  64 E6        29.82S
6HR MIN TEMP:  64; 6HR MAX TEMP:  67;

FTW-NAS-JRB    CLOUDY    68  50  52 CALM      29.82S
6HR MIN TEMP:  65; 6HR MAX TEMP:  70;

FTW-SPINKS     MOCLDY    68  54  60 S6        29.83F
ARLINGTON      CLOUDY    68  55  63 S7        29.82F
6HR MIN TEMP:  65; 6HR MAX TEMP:  70;

ADDISON        CLOUDY    64  55  72 E6        29.84
MESQUITE       CLOUDY    64  54  68 S7        29.84S
LANCASTER      CLOUDY    66  53  61 S5        29.84S
6HR MIN TEMP:  64; 6HR MAX TEMP:  67;

$$

TXZ091>094-102>105-117-120-121-131>134-150100-
NORTH CENTRAL TEXAS

CITY           SKY/WX    TMP DP  RH WIND       PRES   REMARKS
GAINESVILLE    PTCLDY    60  51  72 SE5       29.87R
6HR MIN TEMP:  60; 6HR MAX TEMP:  65;

BRIDGEPORT     PTCLDY    63  47  56 W5        29.86R
6HR MIN TEMP:  63; 6HR MAX TEMP:  67;

DECATUR        PTCLDY    63  46  52 SW3       29.84R
6HR MIN TEMP:  63; 6HR MAX TEMP:  66;

DENTON         PTCLDY    64  52  64 SE7       29.83S
6HR MIN TEMP:  63; 6HR MAX TEMP:  67;

MCKINNEY       CLOUDY    63  54  72 E5        29.84S
6HR MIN TEMP:  63; 6HR MAX TEMP:  64;

ROCKWALL       CLOUDY    65  55  72 SE6       29.83S
6HR MIN TEMP:  63; 6HR MAX TEMP:  65;

TERRELL        CLOUDY    64  55  72 SE5       29.84F
6HR MIN TEMP:  63; 6HR MAX TEMP:  65;

WAXAHACHIE     CLOUDY    66  56  68 S8        29.84S
6HR MIN TEMP:  64; 6HR MAX TEMP:  67;

$$

TXZ083>090-098>101-113>116-127>130-139>142-154-155-150100-
WESTERN NORTH TEXAS

CITY           SKY/WX    TMP DP  RH WIND       PRES   REMARKS
WICHITA FALLS  PTCLDY    57  46  66 N7        29.84F
6HR MIN TEMP:  57; 6HR MAX TEMP:  64;

WF-KICKAPOO    CLOUDY    59  47  63 N10       29.86S
6HR MIN TEMP:  59; 6HR MAX TEMP:  64;

VERNON         CLOUDY    56  36  45 N8        29.88R
6HR MIN TEMP:  44; 6HR MAX TEMP:  60;

ABILENE        CLEAR     59  40  49 NW5       29.85S
6HR MIN TEMP:  57; 6HR MAX TEMP:  62;

ABILENE-DYESS  CLEAR     59  41  50 N2        29.83F
6HR MIN TEMP:  56; 6HR MAX TEMP:  61;

MINERAL WELLS  PTCLDY    62  44  51 NW7       29.82S
6HR MIN TEMP:  62; 6HR MAX TEMP:  68;

COMANCHE       CLEAR     69  51  53 CALM      29.82S
6HR MIN TEMP:  66; 6HR MAX TEMP:  71;

BROWNWOOD      CLEAR     68  48  49 NW7       29.82S
$$

TXZ143>147-156>162-174-175-150100-
CENTRAL TEXAS

CITY           SKY/WX    TMP DP  RH WIND       PRES   REMARKS
WACO           MOCLDY    68  53  58 S12       29.83S
6HR MIN TEMP:  64; 6HR MAX TEMP:  70;

WACO-MCGREGOR  PTCLDY    69  55  60 S7        29.83F
6HR MIN TEMP:  64; 6HR MAX TEMP:  72;

CORSICANA      CLOUDY    69  54  58 S5        29.85F
6HR MIN TEMP:  65; 6HR MAX TEMP:  71;

HEARNE         PTCLDY    71  53  52 S14G21    29.85F
6HR MIN TEMP:  70; 6HR MAX TEMP:  76;

TEMPLE         PTCLDY    70  54  56 S9        29.84S
6HR MIN TEMP:  65; 6HR MAX TEMP:  72;

KILLEEN        MOCLDY    67  54  63 S7        29.82F
6HR MIN TEMP:  64; 6HR MAX TEMP:  71;

KILLEEN-SKYLRK CLOUDY    68  54  60 S8        29.83F
6HR MIN TEMP:  65; 6HR MAX TEMP:  72;

FORT HOOD      MOCLDY    68  53  58 S8        29.81F
6HR MIN TEMP:  65; 6HR MAX TEMP:  71;

HAMILTON       CLEAR     69  53  57 S9        29.82F
6HR MIN TEMP:  67; 6HR MAX TEMP:  72;

$$

TXZ095>097-106>112-122>126-135>138-148>153-164>167-150100-
EAST TEXAS

CITY           SKY/WX    TMP DP  RH WIND       PRES   REMARKS
PARIS          CLOUDY    57  45  62 E9        29.88S
6HR MIN TEMP:  54; 6HR MAX TEMP:  61;

SULPHUR SPRNGS CLOUDY    58  52  80 CALM      29.88S
6HR MIN TEMP:  55; 6HR MAX TEMP:  64;

GILMER         CLOUDY    64  53  65 CALM      29.86S
MINEOLA        CLOUDY    64  55  72 CALM      29.86F
TYLER          CLOUDY    67  52  58 SE3       29.85F
6HR MIN TEMP:  65; 6HR MAX TEMP:  70;

LONGVIEW       CLOUDY    65  53  65 SE6       29.86S
6HR MIN TEMP:  64; 6HR MAX TEMP:  71;

JACKSONVILLE   CLOUDY    69  52  55 S6        29.88S
NACOGDOCHES    CLOUDY    68  48  49 S7        29.87R
6HR MIN TEMP:  66; 6HR MAX TEMP:  72;

LUFKIN         CLOUDY    68  53  58 S9G20     29.87F
6HR MIN TEMP:  68; 6HR MAX TEMP:  75;

$$

SUPPLEMENTAL OBSERVATIONS (CENTRAL)

CITY           SKY/WX    TMP DP  RH WIND       PRES   REMARKS
$$

SUPPLEMENTAL OBSERVATIONS (WEST)

CITY           SKY/WX    TMP DP  RH WIND       PRES   REMARKS
$$

SUPPLEMENTAL OBSERVATIONS (EAST)

CITY           SKY/WX    TMP DP  RH WIND       PRES   REMARKS
$$

SUPPLEMENTAL OBSERVATIONS ARE A COLLECTION OF AUTOMATED INSTRUMENTS
THAT ARE MAINTAINED BY A VARIETY OF FEDERAL AND STATE AGENCIES.
CERTAIN ELEMENTS...SUCH AS HUMIDITY VALUES AND SUSTAINED WIND
SPEEDS...MAY BE APPROXIMATED.





USA.gov is the U.S. government's official web portal to all federal, state and local government web resources and services.